Content
SEND FEEDBACK

Daily
Averages
Monthly
Summary
Czech Republic

CHEB, CZECH REPUBLIC


Home > Europe > Czech Republic
Elevation: 1545 feet     Latitude: 50 05N     Longitude: 012 24E

WEATHER
 
SELECT A DAY
Number of Records: 79,805;   Date Range: 6/5/97 - 9/15/14
 
SHARE

PRINT THIS DATA

[ ← Previous Day ]
WEATHER ALMANAC - MAY 6, 2013
[ Next Day → ]
[ °C ]   °F
Weather ElementAverageHighLow
Temperature56 °F60.8 °F (1:00 pm)46.4 °F (3:00 am)
Dewpoint49.6 °F53.6 °F (7:00 pm)42.8 °F (2:00 am)
Humidity79.8 %100 % (11:00 pm)63 % (1:00 pm)
Barometer30.10 in30.21 in (1:00 am)30.04 in (6:30 pm)
Wind Speed9.6 mph15 mph (1:00 pm)
Weather ElementAverage
Visibility6 mi
Wind DirectionENE (64.3 °)

Weather ElementTotal
Precipitation---
Heating Degree Days11.4 (Base 65)
Growing Degree Days3.6 (Base 50)
Averaged from 42 records on May 6, 2013
WEATHER CONDITIONS BREAKOUT
WIND DIRECTION BREAKOUT
WEATHER BY HOUR - MAY 6, 2013
[ °C ]   °F
Local TimeTemperatureDewpointHumidityBarometerVisibilityWind DirectionWind SpeedGust SpeedPrecipitationEventsConditions
1:00 AM50.0 °F44.6 °F82 %30.21 inENE (70°)5.8 mphClear
2:00 AM48.2 °F42.8 °F82 %30.21 inEast (80°)4.6 mphClear
3:00 AM46.4 °F44.6 °F93 %30.18 inEast (100°)3.5 mphClear
4:00 AM50.0 °F46.4 °F87 %30.18 inVariable2.3 mphClear
5:00 AM50.0 °F46.4 °F87 %30.15 in6.2 miENE (70°)6.9 mphPartly Cloudy
6:00 AM50.0 °F46.4 °F87 %30.15 in6.2 miEast (80°)8.1 mphPartly Cloudy
7:00 AM51.8 °F46.4 °F82 %30.15 in6.2 miENE (70°)6.9 mphPartly Cloudy
8:00 AM55.4 °F46.4 °F72 %30.15 in6.2 miNE (50°)9.2 mphPartly Cloudy
8:30 AM55.4 °F48.2 °F77 %30.15 in6.2 miNE (50°)9.2 mphPartly Cloudy
9:00 AM57.2 °F48.2 °F72 %30.15 in6.2 miENE (60°)10.4 mphPartly Cloudy
9:30 AM57.2 °F48.2 °F72 %30.15 in6.2 miENE (70°)11.5 mphScattered Clouds
10:00 AM57.2 °F48.2 °F72 %30.15 in6.2 miENE (70°)11.5 mphScattered Clouds
10:30 AM57.2 °F46.4 °F67 %30.15 in6.2 miENE (60°)12.7 mphMostly Cloudy
11:00 AM57.2 °F48.2 °F72 %30.15 in6.2 miENE (70°)12.7 mphScattered Clouds
11:30 AM59.0 °F48.2 °F67 %30.12 in6.2 miENE (70°)12.7 mphPartly Cloudy
12:00 PM59.0 °F48.2 °F67 %30.12 in6.2 miEast (80°)11.5 mphPartly Cloudy
12:30 PM59.0 °F50.0 °F72 %30.12 in6.2 miNE (50°)12.7 mphPartly Cloudy
1:00 PM60.8 °F48.2 °F63 %30.12 in6.2 miENE (70°)15.0 mphScattered Clouds
1:30 PM60.8 °F50.0 °F68 %30.12 in6.2 miENE (60°)15.0 mphScattered Clouds
2:00 PM59.0 °F50.0 °F72 %30.09 in6.2 miENE (70°)13.8 mphScattered Clouds
2:30 PM60.8 °F50.0 °F68 %30.09 in6.2 miENE (70°)13.8 mphScattered Clouds
3:00 PM59.0 °F50.0 °F72 %30.09 in6.2 miENE (70°)12.7 mphMostly Cloudy
3:30 PM59.0 °F50.0 °F72 %30.09 in6.2 miNE (50°)10.4 mphMostly Cloudy
4:00 PM60.8 °F51.8 °F72 %30.06 in6.2 miENE (60°)11.5 mphScattered Clouds
4:30 PM59.0 °F50.0 °F72 %30.06 in6.2 miENE (70°)11.5 mphMostly Cloudy
5:00 PM59.0 °F50.0 °F72 %30.06 in6.2 miENE (70°)12.7 mphMostly Cloudy
5:30 PM57.2 °F50.0 °F77 %30.06 in6.2 miEast (80°)11.5 mphMostly Cloudy
6:00 PM57.2 °F51.8 °F82 %30.06 in6.2 miEast (80°)11.5 mphMostly Cloudy
6:05 PM57.2 °F51.8 °F82 %30.06 in6.2 miENE (70°)11.5 mphRainLight Rain Showers
6:30 PM57.2 °F51.8 °F82 %30.04 in6.2 miENE (70°)10.4 mphRainLight Rain Showers
6:44 PM57.2 °F51.8 °F82 %30.04 in3.1 miENE (70°)9.2 mphRainLight Rain Showers
7:00 PM55.4 °F53.6 °F94 %30.04 in6.2 miENE (70°)9.2 mphRainLight Rain Showers
7:30 PM55.4 °F53.6 °F94 %30.04 in6.2 miENE (60°)10.4 mphMostly Cloudy
8:00 PM55.4 °F53.6 °F94 %30.04 in6.2 miENE (60°)8.1 mphMostly Cloudy
8:30 PM55.4 °F53.6 °F94 %30.04 in6.2 miENE (60°)9.2 mphMostly Cloudy
8:54 PM55.4 °F51.8 °F88 %30.04 in6.2 miENE (60°)8.1 mphRainLight Rain Showers
9:00 PM55.4 °F51.8 °F88 %30.04 in6.2 miENE (70°)8.1 mphRainLight Rain Showers
9:07 PM55.4 °F51.8 °F88 %30.04 in6.2 miENE (70°)5.8 mphMostly Cloudy
9:30 PM55.4 °F51.8 °F88 %30.04 in6.2 miENE (60°)4.6 mphMostly Cloudy
10:00 PM55.4 °F51.8 °F88 %30.04 in6.2 miNE (40°)5.8 mphRainLight Rain Showers
10:23 PM55.4 °F51.8 °F88 %30.04 in3.1 miNE (40°)3.5 mphRainLight Rain Showers
11:00 PM53.6 °F53.6 °F100 %30.04 in3.7 miNE (50°)6.9 mphMostly Cloudy
Hourly data recorded from LKKV, located miles away from Cheb, Czech Republic







STORIES FROM OUR PARTNERS